Location: Veyrier
(46.1830°N, 6.2000°E)
Time: 07:05:27
(UTC+02:00)

Daily predictions for brighter satellites

Satellite Brightness Start Highest point End
(mag) Time Altitude Azimuth Time Altitude Azimuth Time Altitude Azimuth
Cosmos 1680 Rocket 4.2 21:38:18 10° SSE 21:42:54 32° E 21:47:31 10° NE
Aureole 3 Rocket 4.1 21:37:46 10° SSE 21:43:57 44° E 21:48:26 10° NNE
Helios 1B rocket 2.4 21:40:09 10° NNE 21:44:17 76° ESE 21:48:24 10° S
Cosmos 1455 Rocket 3.3 21:40:47 10° NNW 21:45:10 74° W 21:49:30 10° S
SAR-Lupe-1 4.1 21:43:04 10° SSE 21:46:39 90° NW 21:50:16 10° NNW
SPOT 5 3.8 21:46:45 10° SE 21:50:26 28° ENE 21:54:09 10° N
Cosmos 1939 Rocket 3.0 21:46:41 10° S 21:50:31 74° WSW 21:54:25 10° NNW
NOSS 5 (C) 4.4 21:47:36 10° SW 21:51:05 82° NW 21:54:10 10° NE
NOSS 2-2 (E) 3.7 21:48:20 10° SSW 21:52:17 52° ESE 21:56:54 10° NE
Iridium 4 Rocket 4.5 21:49:40 10° NNW 21:54:22 49° W 21:59:30 10° SSW
Envisat 3.6 21:51:50 10° S 21:56:49 58° W 22:01:51 10° NNW
PSLV R/B 4.0 21:55:25 10° WSW 21:58:14 31° S 22:01:04 10° ESE
H-2A R/B 4.3 21:57:51 10° E 22:00:04 14° ENE 22:02:16 10° NNE
MetOp-B 4.5 21:55:11 10° SE 22:00:21 52° ENE 22:05:33 10° N
DNEPR-1 R/B 3.6 21:58:43 10° NW 22:02:57 74° NE 22:07:16 11° SE
SL-27 R/B 3.5 22:01:20 10° SSE 22:04:28 27° ESE 22:07:37 10° NE
ASTEX 1 3.5 21:59:40 10° SSE 22:04:31 64° E 22:09:22 10° N
Aureole 1 Rocket 3.1 22:02:18 10° SSE 22:05:15 29° ESE 22:07:55 10° NE
Terra 3.7 22:02:35 10° E 22:05:30 16° ENE 22:08:25 10° NNE
SPOT 1/Viking Rocket 4.5 22:01:47 10° SE 22:06:24 34° ENE 22:11:01 10° N
Meteor 2-9 Rocket 4.3 22:01:07 10° N 22:06:31 60° ENE 22:12:00 10° SSE
Cosmos 1743 2.9 22:03:08 10° NNW 22:07:01 76° W 22:10:54 10° S
CRYOSAT 2 4.4 22:06:56 10° SSE 22:11:44 67° E 22:16:33 10° N
Meteor 2-13 Rocket 4.5 22:06:29 10° N 22:12:35 89° ENE 22:18:40 10° S
Meteor 2-4 Rocket 3.8 22:09:49 10° S 22:15:20 61° E 22:21:03 10° NNE
Cosmos 405 3.3 22:12:22 10° N 22:15:52 52° ENE 22:18:49 14° SSE
Cosmos 2184 Rocket 4.1 22:10:30 10° N 22:16:54 85° W 22:23:13 10° S
Cosmos 2074 Rocket 4.1 22:11:07 10° N 22:17:22 82° W 22:23:37 10° S
Cosmos 1238 Rocket 4.2 22:12:16 10° S 22:18:53 63° E 22:25:21 10° NNE
MOS 1-B Rocket 4.0 22:14:39 10° SSE 22:20:21 76° ENE 22:26:47 10° NNW
Okean 1-7 Rocket 3.8 22:17:18 10° S 22:21:37 53° E 22:26:01 10° NNE
Cosmos 1371 Rocket 4.3 22:17:04 10° NNW 22:22:21 55° ENE 22:26:40 15° SE
Cosmos 1346 2.9 22:19:39 10° SSW 22:22:24 78° WNW 22:25:11 10° N
Cosmos 1437 Rocket 3.3 22:21:19 10° N 22:24:56 40° ENE 22:27:34 17° SE
Cosmos 1833 Rocket 4.5 22:24:51 11° ESE 22:26:16 12° E 22:28:19 10° ENE
Cosmos 923 Rocket 4.2 22:22:53 10° SSW 22:28:13 82° WNW 22:33:33 10° NNE
Okean 2 3.9 22:25:41 13° SSE 22:28:57 41° E 22:32:49 10° NNE
NOSS 2-2 (D) 3.7 22:31:09 10° SW 22:35:12 77° NW 22:40:02 10° NE
Cosmos 1892 Rocket 4.4 22:33:04 17° SE 22:35:50 33° E 22:39:47 10° NNE
Tiangong 2 2.5 22:34:10 10° SSW 22:36:26 20° SSE 22:36:26 20° SSE
Cosmos 2228 4.2 22:33:15 10° NNE 22:37:02 29° ENE 22:39:24 18° ESE
Cosmos 1666 3.5 22:34:32 10° NNW 22:38:09 47° W 22:41:44 10° SSW
CENTAUR R/B 3.7 22:32:31 10° NW 22:40:05 51° WSW 22:47:42 12° S
Cosmos 921 Rocket 3.8 22:38:40 10° N 22:42:57 40° ENE 22:45:39 20° SE
Meteor 1-23 Rocket 4.2 22:38:23 10° S 22:43:56 81° E 22:49:35 10° NNE
MetOp-A 4.5 22:41:05 10° S 22:46:18 64° WSW 22:51:39 10° NNW
ERS-1 Rocket 3.9 22:42:08 10° S 22:46:56 46° W 22:51:47 10° NNW
Cosmos 1606 Rocket 3.5 22:43:05 10° N 22:47:24 69° E 22:50:16 21° SSE
ISS -3.1 22:44:30 10° SSW 22:47:26 30° SE 22:50:23 10° ENE
USA 245 2.3 22:46:29 24° S 22:47:56 72° WSW 22:50:21 10° NNW
Meteor 1-15 Rocket 4.2 22:43:41 10° NNW 22:49:20 88° W 22:53:53 16° S
Cosmos 839 Rocket 4.4 22:42:58 10° NNW 22:49:22 69° NE 22:55:04 19° SE
Cosmos 1980 Rocket 4.0 22:46:34 10° N 22:50:48 21° NE 22:54:59 10° E
SL-24 DEB 4.2 22:47:35 18° SSE 22:50:55 69° E 22:55:32 10° N
YAOGAN 11 4.4 22:48:13 14° S 22:51:47 62° WSW 22:56:05 10° NNW
Lacrosse 5 rocket 4.1 22:49:16 10° NW 22:52:48 21° N 22:56:22 10° NE
NOSS 2-2 (C) 4.4 22:50:02 10° WSW 22:54:04 54° NW 22:58:52 10° NNE
H-2A R/B 1.9 22:50:58 20° SSE 22:54:27 76° ENE 22:59:29 10° N
Nadezhda 1 Rocket 4.4 22:49:11 10° SSW 22:55:30 69° W 23:01:55 10° N
Cosmos 1726 Rocket 3.5 22:54:08 10° N 22:58:29 76° E 23:01:01 24° SSE
Cosmos 2154 Rocket 4.2 22:54:08 10° NNW 23:00:28 74° W 23:06:00 14° S
DMSP B5D2-2 4.4 22:55:42 10° NNE 23:00:48 46° E 23:03:56 22° SSE
Cosmos 2112 Rocket 4.4 22:55:54 10° SSW 23:01:04 65° WNW 23:06:16 10° NNE
Cosmos 2058 Rocket 3.1 22:59:58 10° N 23:04:22 65° E 23:06:41 27° SSE
Nimbus 7 Rocket 4.4 22:58:17 10° NNE 23:04:22 80° ESE 23:10:26 10° SSW
SL-8 Rocket 4.2 22:58:59 10° N 23:05:09 58° ENE 23:09:05 23° SSE
Cosmos 1624 Rocket 4.1 23:01:17 10° NNW 23:06:34 79° WSW 23:09:56 23° SSE
Cosmos 2366 rocket 4.4 23:03:04 10° N 23:09:00 46° ENE 23:12:29 24° SE
CARTOSAT-1 3.8 23:08:08 28° SE 23:10:13 56° ENE 23:14:28 10° N
Cosmos 1515 3.6 23:08:11 26° S 23:10:14 77° E 23:14:03 10° NNE
OE (NEXTSAT) 4.4 23:07:16 10° W 23:10:49 63° SSW 23:12:01 36° SE
SeaSat 1 4.4 23:07:58 10° E 23:11:25 19° NE 23:14:52 10° N
Meteor 1-4 Rocket 3.5 23:08:45 10° N 23:12:07 34° ENE 23:13:05 29° ESE
COSMOS 2406 4.2 23:07:03 10° SW 23:12:36 49° WNW 23:18:08 10° NNE
Cosmos 1025 Rocket 3.8 23:08:28 10° SSW 23:12:38 50° WNW 23:16:48 10° N
ARGOS 3.9 23:09:01 14° S 23:13:29 50° W 23:18:46 10° NNW
Cosmos 2278 3.7 23:14:06 10° NNW 23:19:51 84° ENE 23:23:00 28° SSE
Cosmos 2082 Rocket 2.7 23:22:42 28° SSE 23:24:58 40° ESE 23:30:12 10° NE
Cosmos 2056 Rocket 3.8 23:20:09 10° NNW 23:25:15 58° WSW 23:28:07 25° S
Landsat 7 4.0 23:25:02 27° S 23:27:38 70° WSW 23:32:25 10° NNW
Cosmos 2341 Rocket 4.4 23:21:57 10° NNW 23:28:11 63° W 23:32:53 19° S
SPOT 5 4.1 23:25:22 14° SSW 23:28:29 30° W 23:32:19 10° NW
PSLV R/B 3.1 23:29:12 55° E 23:29:15 55° ENE 23:32:01 10° N
Cosmos 967 Rocket 4.4 23:26:40 10° SSW 23:32:54 74° ESE 23:39:11 10° NE
Cosmos 1812 Rocket 4.3 23:29:04 10° N 23:33:20 41° ENE 23:34:43 32° ESE
H-2A R/B 2.1 23:33:27 34° S 23:35:25 83° WSW 23:39:59 10° NNW
SL-08 R/B 4.5 23:29:18 10° N 23:35:27 72° E 23:38:35 30° SSE
CZ-4B R/B 3.8 23:32:45 10° NNE 23:37:37 47° E 23:39:19 34° SSE
Cosmos 2369 3.8 23:32:37 10° NNW 23:38:21 72° WSW 23:41:09 31° S
CZ-2C R/B 4.5 23:35:53 10° NE 23:39:11 16° E 23:40:12 15° E
CZ-4C R/B 3.7 23:38:48 36° E 23:39:22 39° ENE 23:42:43 10° N
Terra 1.9 23:40:33 33° S 23:42:41 71° WSW 23:47:28 10° NNW
TELKOM 3 3.5 23:40:37 10° WNW 23:43:12 69° SSW 23:43:12 69° SSW
Cosmos 2218 Rocket 3.9 23:38:48 10° N 23:44:59 87° W 23:48:16 30° S
Cosmos 1420 Rocket 4.2 23:41:38 10° NNW 23:46:53 63° ENE 23:49:00 35° SE
Cosmos 1626 Rocket 3.5 23:46:01 44° SSE 23:47:11 65° E 23:51:28 10° NNE
SL-16 R/B 4.1 23:44:01 10° N 23:48:20 22° NE 23:52:35 10° E
Cosmos 1697 Rocket 2.7 23:43:08 10° NNW 23:48:47 74° ENE 23:51:13 35° SE
Spot 4 3.8 23:47:56 39° SSE 23:49:40 75° ENE 23:54:29 10° N
Cosmos 1544 3.9 23:49:43 10° N 23:53:05 35° ENE 23:53:20 34° E
ALOS 2 4.4 23:51:38 17° E 23:53:10 20° ENE 23:56:22 10° NNE
SME Rocket 4.3 23:51:44 27° ESE 23:53:54 40° ENE 23:57:54 10° N
Cosmos 389 Rocket 4.2 23:54:18 10° NNE 23:57:00 20° ENE 23:57:11 20° ENE
